Regional Weather Roundup
Issued by NWS Jackson, KY

Home | Current Version | Previous Version | Text Only | Print | Product List | Glossary Off
Versions: 1 2 3 4 5 6 7 8 9 10 11 12 13 14 15 16 17 18 19 20 21 22 23 24 25 26 27 28

000
ASUS43 KJKL 202010
RWRJKL

EAST KENTUCKY HOURLY WEATHER ROUNDUP
NATIONAL WEATHER SERVICE JACKSON KY
400 PM EDT THU JUL 20 2017

NOTE: "FAIR" INDICATES FEW OR NO CLOUDS BELOW 12,000 FEET WITH
NO SIGNIFICANT WEATHER AND/OR OBSTRUCTIONS TO VISIBILITY.

* THESE REPORTS ARE NOT UNDER NWS QUALITY CONTROL AND MAY NOT
  REPORT WEATHER SUCH AS PRECIPITATION AND FOG.

KYZ079-080-083-085-087-088-110-112-115-119-120-202100
...EASTERN KENTUCKY...

CITY           SKY/WX    TMP DP  RH WIND       PRES   REMARKS
JACKSON        CLOUDY    89  71  55 CALM      30.12F HX  95
LONDON         CLOUDY    90  67  46 N7        30.12F HX  93
SOMERSET*      CLOUDY    88  68  51 N5        30.12F HX  91
MONTICELLO*    CLOUDY    88  74  63 VRB7      30.13F HX  96
WILLIAMSBURG*  CLOUDY    90  68  48 NW7       30.11F HX  93
MIDDLESBORO*   CLOUDY    89  69  50 NW6       30.12F HX  94
HARLAN APT*    CLOUDY    88  63  42 W8        30.14F
BIG SANDY APT* CLOUDY    89  69  51 W3        30.11F HX  93
MOREHEAD APT*  CLOUDY    88  72  58 S7        30.09F HX  94
ASHLAND*         N/A    N/A N/A N/A MISG        N/A
$$

KYZ035-036-041-042-044-050-067-078-099-202100
...CENTRAL KENTUCKY...

CITY           SKY/WX    TMP DP  RH WIND       PRES   REMARKS
MT STERLING*   CLOUDY    88  72  58 W3        30.09F HX  94
FLEMING/MASON* PTSUNNY   89  72  57 S6        30.04F HX  95
DANVILLE*      CLOUDY    90  72  55 NW5       30.10F HX  96
LEXINGTON      CLOUDY    90  72  55 W7        30.08F HX  97
FRANKFORT      PTSUNNY   89  72  56 S7        30.05F HX  96
LOUISVILLE     CLOUDY    92  73  53 S8        30.04R HX 100
LEBANON*         N/A     91  72  52 W5        30.08F HX  98
GLASGOW*       PTSUNNY   91  70  49 CALM      30.09F HX  97
BOWLING GREEN  CLOUDY    92  72  51 CALM      30.08F HX  99
$$

KYZ091>093-OHZ055-061-077-WVZ005-015-034-035-042-202100
...SOUTHERN OHIO/WEST VIRGINIA...

CITY           SKY/WX    TMP DP  RH WIND       PRES   REMARKS
COVINGTON      CLOUDY    89  77  67 SW9G21    30.01F HX 101
COLUMBUS       CLOUDY    86  75  69 SW12      30.00F HX  95
DAYTON         CLOUDY    80  75  84 W10       30.04R
WILMINGTON     PTSUNNY   76  73  91 W6G18     30.01F
HUNTINGTON     MOSUNNY   90  69  50 SW6       30.06F HX  94
CHARLESTON     CLOUDY    89  65  44 W6        30.07F HX  91
PINEVILLE*     CLOUDY    88  64  44 MISG      30.17S
BECKLEY        CLOUDY    83  65  54 NW9       30.15F
BLUEFIELD      MOSUNNY   82  62  50 W9        30.18F
LOGAN CO APT*    N/A     86  66  51 CALM      30.12F
$$

VAZ002-007-008-TNZ017-027-036-066-071-202100
...SOUTHWEST VIRGINIA/EAST TENNESSEE...

CITY           SKY/WX    TMP DP  RH WIND       PRES   REMARKS
WISE*          CLOUDY    86  61  42 NW12      30.21F
JONESVILLE*      N/A     90  68  48 NW6       30.14F HX  93
ABINGDON*      SUNNY     88  67  49 N5        30.15F HX  90
BRISTOL        PTSUNNY   92  65  40 SW8       30.11F HX  94
MORRISTOWN*    CLEAR     88  68  51 VRB7G13   30.11F HX  91
SEVIERVILLE*   PTCLDY    91  64  40 CALM      30.09F HX  93
KNOXVILLE      PTSUNNY   91  65  41 N7        30.09F HX  93
LAFOLLETTE*    PTCLDY    88  70  55 VRB5      30.15S HX  92
OAK RIDGE      CLOUDY    91  69  48 E3        30.11F HX  96
CROSSVILLE     CLOUDY    87  68  52 N9        30.18S HX  90
NASHVILLE      PTSUNNY   93  70  46 NW7       30.09F HX  99
$$

...KEY TO REMARKS...
VSB - VISIBILITY IN MILES
WCI - WIND CHILL INDEX
HX  - HEAT INDEX

$$




USA.gov is the U.S. government's official web portal to all federal, state and local government web resources and services.